Location: Colle Santa Colomba
(42.0333°N, 12.5667°E)
Time: 04:04:02
(UTC+00:00)

CZ-4C R/B - Pass Details

Date: 25 October 2021
Orbit: 403 x 482 km, 97.7° (Epoch: 05 December)

Event Time Altitude Azimuth Distance (km) Brightness Sun altitude
Rises 17:55:55 0° 4° (N) 2,446 6.6 -19.7°
Reaches altitude 10° 17:58:04 10° 356° (N) 1,555 5.7 -20.1°
Maximum altitude 18:01:09 36° 288° (WNW) 694 4.4 -20.7°
Drops below altitude 10° 18:04:08 10° 219° (SW) 1,503 6.0 -21.3°
Sets 18:06:11 0° 211° (SSW) 2,350 6.9 -21.6°
